• En España
  • Lista de países
  • Para 7 días
  • Temperatura del agua
  • Mapa Satelital
  • El tiempo en el mapa
  • Informadores
  • user-avatar
    Iniciar sesión

    Tiempo cada hora Kormovische

    Hoy, 14 Agosto, Martes

    Tiempo Temperatura Precipitaciones Viento Presión Humedad
    00:00 +17°C° 0 mm 2 mps 731 mmHg 95%
    01:00 +16°C° 0 mm 2 mps 731 mmHg 97%
    02:00 +16°C° 0 mm 2 mps 731 mmHg 97%
    03:00 +16°C° 0 mm 2 mps 731 mmHg 97%
    04:00 +16°C° 0 mm 1 mps 731 mmHg 98%
    05:00 +18°C° 0,1 mm 1 mps 731 mmHg 96%
    06:00 +18°C° 0,1 mm 1 mps 731 mmHg 95%
    07:00 +19°C° 0,1 mm 1 mps 731 mmHg 94%
    08:00 +20°C° 0,4 mm 1 mps 731 mmHg 87%
    09:00 +22°C° 0,4 mm 1 mps 731 mmHg 80%
    10:00 +23°C° 0 mm 2 mps 732 mmHg 76%
    11:00 +23°C° 0,7 mm 2 mps 732 mmHg 75%
    12:00 +23°C° 0,7 mm 2 mps 732 mmHg 75%
    13:00 +23°C° 0,7 mm 2 mps 732 mmHg 74%
    14:00 +21°C° 0,6 mm 2 mps 732 mmHg 75%
    15:00 +21°C° 0,6 mm 2 mps 732 mmHg 76%
    16:00 +20°C° 0,6 mm 2 mps 732 mmHg 77%
    17:00 +19°C° 0,1 mm 2 mps 732 mmHg 79%
    18:00 +18°C° 0,1 mm 2 mps 732 mmHg 82%
    19:00 +16°C° 0,1 mm 2 mps 732 mmHg 85%
    20:00 +16°C° 0 mm 2 mps 732 mmHg 86%
    21:00 +15°C° 0 mm 2 mps 732 mmHg 87%
    22:00 +14°C° 0 mm 1 mps 732 mmHg 88%
    23:00 +14°C° 0 mm 1 mps 732 mmHg 90%

    Mañana, 15 Agosto, Miércoles

    Tiempo Temperatura Precipitaciones Viento Presión Humedad
    00:00 +13°C° 0 mm 1 mps 732 mmHg 92%
    01:00 +13°C° 0 mm 1 mps 733 mmHg 95%
    02:00 +13°C° 0 mm 1 mps 733 mmHg 96%
    03:00 +13°C° 0 mm 1 mps 733 mmHg 96%
    04:00 +12°C° 0 mm 1 mps 733 mmHg 97%
    05:00 +13°C° 0 mm 2 mps 733 mmHg 95%
    06:00 +14°C° 0 mm 2 mps 733 mmHg 93%
    07:00 +13°C° 0 mm 3 mps 733 mmHg 90%
    08:00 +16°C° 0 mm 3 mps 734 mmHg 80%
    09:00 +18°C° 0 mm 3 mps 734 mmHg 70%
    10:00 +19°C° 0 mm 4 mps 734 mmHg 61%
    11:00 +20°C° 0 mm 4 mps 734 mmHg 57%
    12:00 +21°C° 0 mm 4 mps 734 mmHg 53%
    13:00 +22°C° 0 mm 4 mps 734 mmHg 49%
    14:00 +22°C° 0 mm 4 mps 735 mmHg 49%
    15:00 +22°C° 0 mm 4 mps 735 mmHg 49%
    16:00 +22°C° 0 mm 4 mps 735 mmHg 49%
    17:00 +21°C° 0 mm 3 mps 735 mmHg 57%
    18:00 +19°C° 0 mm 3 mps 735 mmHg 65%
    19:00 +18°C° 0 mm 2 mps 735 mmHg 72%
    20:00 +16°C° 0 mm 2 mps 735 mmHg 77%
    21:00 +15°C° 0 mm 1 mps 736 mmHg 81%
    22:00 +13°C° 0 mm 1 mps 736 mmHg 86%
    23:00 +13°C° 0 mm 1 mps 736 mmHg 88%

    Pasado mañana, 16 Agosto, Jueves

    Tiempo Temperatura Precipitaciones Viento Presión Humedad
    00:00 +12°C° 0 mm 1 mps 736 mmHg 90%
    01:00 +12°C° 0 mm 1 mps 736 mmHg 93%
    02:00 +11°C° 0 mm 1 mps 736 mmHg 93%
    03:00 +11°C° 0 mm 1 mps 736 mmHg 94%
    04:00 +11°C° 0 mm 1 mps 736 mmHg 95%
    05:00 +12°C° 0 mm 1 mps 736 mmHg 91%
    06:00 +13°C° 0 mm 2 mps 736 mmHg 87%
    07:00 +15°C° 0 mm 2 mps 736 mmHg 83%
    08:00 +16°C° 0 mm 3 mps 736 mmHg 76%
    09:00 +18°C° 0 mm 3 mps 735 mmHg 69%
    10:00 +20°C° 0 mm 4 mps 735 mmHg 62%
    11:00 +20°C° 0,2 mm 4 mps 734 mmHg 66%
    12:00 +20°C° 0,2 mm 5 mps 734 mmHg 70%
    13:00 +20°C° 0,2 mm 5 mps 734 mmHg 75%
    14:00 +19°C° 0,5 mm 5 mps 733 mmHg 81%
    15:00 +18°C° 0,5 mm 4 mps 733 mmHg 88%
    16:00 +18°C° 0,5 mm 4 mps 733 mmHg 94%
    17:00 +18°C° 0,4 mm 3 mps 733 mmHg 95%
    18:00 +18°C° 0,4 mm 3 mps 732 mmHg 95%
    19:00 +18°C° 0,4 mm 2 mps 732 mmHg 96%
    20:00 +17°C° 0,2 mm 2 mps 732 mmHg 96%
    21:00 +17°C° 0,2 mm 2 mps 732 mmHg 97%
    22:00 +16°C° 0,2 mm 2 mps 732 mmHg 98%
    23:00 +16°C° 0 mm 2 mps 732 mmHg 98%

    17 Agosto, Viernes

    Tiempo Temperatura Precipitaciones Viento Presión Humedad
    00:00 +16°C° 0 mm 2 mps 732 mmHg 98%
    01:00 +16°C° 0 mm 2 mps 732 mmHg 98%
    02:00 +15°C° 0,1 mm 2 mps 732 mmHg 98%
    03:00 +14°C° 0,1 mm 3 mps 732 mmHg 98%
    04:00 +13°C° 0,1 mm 3 mps 732 mmHg 97%
    05:00 +13°C° 0 mm 3 mps 732 mmHg 97%
    06:00 +12°C° 0 mm 3 mps 733 mmHg 96%
    07:00 +12°C° 0 mm 3 mps 733 mmHg 96%
    08:00 +12°C° 0,1 mm 3 mps 733 mmHg 95%
    09:00 +12°C° 0,1 mm 3 mps 733 mmHg 95%
    10:00 +12°C° 0,1 mm 3 mps 734 mmHg 94%
    11:00 +13°C° 0,1 mm 3 mps 734 mmHg 90%
    12:00 +13°C° 0,1 mm 3 mps 734 mmHg 87%
    13:00 +14°C° 0,1 mm 3 mps 735 mmHg 83%
    14:00 +16°C° 0,2 mm 3 mps 735 mmHg 78%
    15:00 +17°C° 0,2 mm 3 mps 735 mmHg 73%
    16:00 +17°C° 0,2 mm 3 mps 735 mmHg 68%
    17:00 +16°C° 0,2 mm 2 mps 736 mmHg 75%
    18:00 +15°C° 0,2 mm 2 mps 736 mmHg 82%
    19:00 +14°C° 0,2 mm 2 mps 736 mmHg 89%
    20:00 +13°C° 0 mm 2 mps 736 mmHg 91%
    21:00 +12°C° 0 mm 2 mps 736 mmHg 93%
    22:00 +10°C° 0 mm 1 mps 737 mmHg 95%
    23:00 +9°C° 0 mm 2 mps 737 mmHg 95%

    18 Agosto, Sábado

    Tiempo Temperatura Precipitaciones Viento Presión Humedad
    00:00 +8°C° 0 mm 2 mps 737 mmHg 95%
    01:00 +8°C° 0 mm 2 mps 737 mmHg 95%
    02:00 +7°C° 0 mm 2 mps 737 mmHg 95%
    03:00 +7°C° 0 mm 2 mps 737 mmHg 95%
    04:00 +6°C° 0 mm 2 mps 738 mmHg 96%
    05:00 +7°C° 0 mm 2 mps 738 mmHg 93%
    06:00 +8°C° 0 mm 2 mps 738 mmHg 90%
    07:00 +8°C° 0 mm 3 mps 739 mmHg 88%
    08:00 +10°C° 0 mm 3 mps 739 mmHg 78%
    09:00 +12°C° 0 mm 3 mps 739 mmHg 69%
    10:00 +14°C° 0 mm 3 mps 739 mmHg 60%
    11:00 +14°C° 0,1 mm 3 mps 739 mmHg 58%
    12:00 +16°C° 0,1 mm 3 mps 739 mmHg 56%
    13:00 +16°C° 0,1 mm 3 mps 739 mmHg 55%
    14:00 +16°C° 0,1 mm 3 mps 739 mmHg 60%
    15:00 +16°C° 0,1 mm 3 mps 739 mmHg 65%
    16:00 +14°C° 0,1 mm 3 mps 739 mmHg 70%
    17:00 +13°C° 0,1 mm 3 mps 739 mmHg 75%
    18:00 +13°C° 0,1 mm 2 mps 740 mmHg 80%
    19:00 +13°C° 0,1 mm 2 mps 740 mmHg 85%
    20:00 +12°C° 0 mm 1 mps 740 mmHg 88%
    21:00 +10°C° 0 mm 1 mps 740 mmHg 91%
    22:00 +9°C° 0 mm 1 mps 741 mmHg 94%
    23:00 +9°C° 0 mm 1 mps 741 mmHg 94%

    19 Agosto, Domingo

    Tiempo Temperatura Precipitaciones Viento Presión Humedad
    00:00 +8°C° 0 mm 1 mps 741 mmHg 94%
    01:00 +7°C° 0 mm 1 mps 741 mmHg 94%
    02:00 +7°C° 0 mm 1 mps 741 mmHg 93%
    03:00 +7°C° 0 mm 1 mps 741 mmHg 93%
    04:00 +6°C° 0 mm 1 mps 742 mmHg 92%
    05:00 +7°C° 0 mm 1 mps 742 mmHg 88%
    06:00 +9°C° 0 mm 1 mps 742 mmHg 85%
    07:00 +10°C° 0 mm 1 mps 742 mmHg 81%
    08:00 +12°C° 0 mm 1 mps 742 mmHg 71%
    09:00 +14°C° 0 mm 1 mps 742 mmHg 61%
    10:00 +16°C° 0 mm 2 mps 742 mmHg 51%
    11:00 +17°C° 0 mm 2 mps 742 mmHg 49%
    12:00 +17°C° 0 mm 2 mps 741 mmHg 47%
    13:00 +18°C° 0 mm 2 mps 741 mmHg 45%
    14:00 +18°C° 0 mm 2 mps 741 mmHg 45%
    15:00 +19°C° 0 mm 2 mps 741 mmHg 45%
    16:00 +19°C° 0 mm 2 mps 741 mmHg 44%
    17:00 +18°C° 0 mm 1 mps 741 mmHg 53%
    18:00 +16°C° 0 mm 1 mps 740 mmHg 61%
    19:00 +14°C° 0 mm 1 mps 740 mmHg 70%
    20:00 +13°C° 0 mm 1 mps 740 mmHg 74%
    21:00 +11°C° 0 mm 1 mps 740 mmHg 79%
    22:00 +10°C° 0 mm 1 mps 740 mmHg 83%
    23:00 +8°C° 0 mm 0 mps 740 mmHg 85%
    Mostrar más